[[{"header":{"parameterUnit":"m.s-1","parameterCategory":1,"la1":30.2991,"la2":30.254,"lo1":-89.0895,"lo2":-89.0444,"dy":0.0017,"dx":0.0017,"nx":28,"ny":28,"refTime":"2026-02-14T09:00:00:Z","depth":0,"parameterNumber":2,"parameterNumberName":"U-component_of_WINDS"},"data":[0,0,0,0,0,0,0,0,0,0,0,0,0,0,0,0,0,0,0,0,0,0,0,0,0,0,0,0,0,0,0,0,0,0,0,0,0,0,0,0,0,0,0,0,0,0,0,0,0,0,0,0,0,0,0,0,0,0,-2.8475,-2.8477,0,-2.8646,-2.8648,-2.865,-2.8619,-2.8616,-2.8612,-2.861,-2.879,-2.8797,-2.8805,0,0,0,0,0,0,0,0,0,0,0,0,0,-2.8125,-2.8131,-2.8475,-2.8477,-2.8479,-2.8646,-2.8648,-2.8651,-2.8619,-2.8615,-2.8612,-2.8608,-2.8788,-2.8797,-2.8806,0,0,0,0,0,0,0,0,0,0,0,0,0,-2.8285,-2.8134,-2.8474,-2.8483,-2.8486,-2.8645,-2.8648,-2.8651,-2.862,-2.8615,-2.8611,-2.8606,-2.8785,-2.8796,-2.8807,-2.897,0,0,-2.8842,-2.8847,0,0,0,0,0,0,0,0,-2.8276,-2.8298,-2.848,-2.8483,-2.8486,-2.8606,-2.8591,-2.8758,-2.8621,-2.8569,-2.8609,-2.8604,-2.8733,-2.8748,-2.8791,-2.8978,-2.8986,-2.8843,-2.885,-2.8855,-2.8858,0,0,0,0,0,0,0,-2.8265,-2.829,-2.8543,-2.8482,-2.8486,-2.848,-2.8498,-2.8623,-2.8675,-2.8573,-2.8571,-2.8592,-2.8734,-2.878,-2.8795,-2.8989,-2.8843,-2.8853,-2.886,-2.8865,-2.932,-2.9325,0,0,0,0,0,0,-2.825,-2.8281,-2.8537,-2.8548,-2.8367,-2.849,-2.851,-2.8572,-2.8673,-2.8684,-2.8596,-2.859,-2.8762,-2.8781,-2.8801,-2.8999,-2.8855,-2.8866,-2.8872,-2.9315,-2.9321,-2.9327,0,0,0,0,0,0,-2.8243,-2.8273,-2.853,-2.8414,-2.8446,-2.8501,-2.8571,-2.8578,-2.8624,-2.869,-2.87,-2.8633,-2.876,-2.8785,-2.8928,-2.9005,-2.8871,-2.8881,-2.9309,-2.9317,-2.9324,-2.9396,0,0,0,0,0,0,-2.8233,-2.8271,-2.8332,-2.8416,-2.8452,-2.8653,-2.8576,-2.8585,-2.8643,-2.8637,-2.8728,-2.8738,-2.8758,-2.8911,-2.894,-2.9018,-2.889,-2.9302,-2.9312,-2.9322,-2.9387,-2.9406,-2.9421,0,0,0,0,0,-2.822,-2.8346,-2.8335,-2.8366,-2.853,-2.8658,-2.8679,-2.8698,-2.865,-2.8713,-2.8755,-2.8735,-2.8992,-2.8926,-2.8958,-2.9041,-2.9298,-2.931,-2.9321,-2.938,-2.9402,-2.9421,0,0,0,0,0,0,-2.8272,-2.8357,-2.8346,-2.8502,-2.8573,-2.8652,-2.8732,-2.8721,-2.8807,-2.8798,-2.8819,-2.884,-2.8986,-2.9028,-2.8953,-2.9205,-2.9138,-2.9157,-2.9172,-2.9194,-2.921,-2.9197,-2.89,0,0,0,0,0,-2.8301,-2.8396,-2.8466,-2.8597,-2.8633,-2.8677,-2.8733,-2.8741,-2.8816,-2.8846,-2.8899,-2.8973,-2.9071,-2.9134,-2.9228,-2.9393,-2.9413,-2.9466,-2.9483,-2.9497,-2.9513,-2.9605,-2.9629,-2.9365,-2.9365,-2.9365,0,0,-2.8363,-2.8421,-2.848,-2.8609,-2.8665,-2.8764,-2.8702,-2.881,-2.8884,-2.8863,-2.9001,-2.9043,-2.9127,-2.9282,-2.9354,-2.9322,-2.959,-2.9512,-2.9522,-2.9531,-2.9619,-2.9644,-2.9666,-2.9373,-2.9372,-2.9371,0,0,-2.8527,-2.858,-2.8695,-2.8752,-2.8836,-2.8865,-2.8892,-2.8974,-2.9,-2.9139,-2.9125,-2.9215,-2.9382,-2.9443,-2.9496,-2.9684,-2.9669,-2.9714,-2.9802,-2.9892,-2.9912,-2.9931,-2.9999,-3.0023,-2.9729,-2.9729,-2.973,0,-2.8593,-2.8741,-2.8757,-2.8866,-2.8924,-2.8907,-2.9025,-2.908,-2.9192,-2.9233,-2.9195,-2.9405,-2.9461,-2.9631,-2.9676,-2.972,-2.9753,-2.9703,-2.9908,-2.9927,-2.9944,-3.0009,-3.0034,-2.9734,-2.9734,-2.9733,-2.9733,0,-2.8819,-2.8922,-2.9006,-2.9112,-2.9179,-2.9293,-2.9327,-2.9393,-2.9396,-2.9429,-2.9571,-2.9637,-2.9744,-2.9785,-2.9789,-2.9956,-2.9934,-2.9902,-2.9836,-2.9974,-3.0035,-3.006,-2.9741,-2.974,-2.9738,-2.9737,0,0,-2.902,-2.9134,-2.9164,-2.9213,-2.9305,-2.9385,-2.9499,-2.9602,-2.9659,-2.9736,-2.9833,-2.9975,-2.9946,-3.0006,-3.0017,-3.0095,-3.0241,-3.0054,-3.0057,-3.0087,-3.043,-3.0453,-3.0482,-3.0231,-3.0236,-3.024,-3.0423,0,-2.9193,-2.9391,-2.9409,-2.9587,-2.9683,-2.9669,-2.9768,-2.9837,-2.987,-2.9958,-2.9996,-3.0096,-3.005,-3.0086,-3.0163,-3.0207,-3.031,-3.0194,-3.0323,-3.0327,-3.0302,-3.0514,-3.0539,-3.0708,-3.0447,-3.0451,-3.0454,0,-2.9421,-2.9504,-2.9692,-2.9771,-2.9812,-2.99,-2.9996,-3.008,-3.0157,-3.0177,-3.0244,-3.0245,-3.0363,-3.0292,-3.0456,-3.0376,-3.043,-3.046,-3.0467,-3.048,-3.0399,-3.0533,-3.0763,-3.0788,-3.0492,-3.0489,-3.0486,0,-2.955,-2.9708,-2.9841,-2.9883,-2.9979,-3.0041,-3.0084,-3.0157,-3.0218,-3.0303,-3.0343,-3.0441,-3.0495,-3.0572,-3.0599,-3.0545,-3.0763,-3.0693,-3.0783,-3.0783,-3.083,-3.0827,-3.1072,-3.0864,-3.0864,-3.0863,-3.0863,0,-2.9741,-2.9857,-2.99,-2.9982,-3.0112,-3.0132,-3.026,-3.03,-3.0365,-3.0456,-3.0451,-3.0536,-3.0567,-3.0659,-3.0681,-3.0814,-3.0839,-3.0859,-3.0863,-3.086,-3.0857,-3.0895,-3.0884,-3.087,-3.0869,-3.0867,-3.0866,0,-2.9907,-2.994,-3.0084,-3.0163,-3.0185,-3.0277,-3.0345,-3.0425,-3.0457,-3.0572,-3.0601,-3.0652,-3.0759,-3.0794,-3.0924,-3.094,-3.1095,-3.1089,-3.1068,-3.1069,-3.1157,-3.1148,-3.1436,-3.1475,-3.1241,-3.1243,-3.1245,0,-3.0027,-3.0115,-3.0203,-3.0262,-3.0307,-3.0403,-3.0465,-3.0489,-3.0554,-3.0649,-3.0718,-3.0824,-3.091,-3.1082,-3.1132,-3.1232,-3.1229,-3.1323,-3.1244,-3.1237,-3.1231,-3.1225,-3.1235,-3.1338,-3.134,-3.1342,-3.1344,0,-3.0236,-3.0249,-3.0337,-3.0432,-3.0506,-3.0582,-3.0656,-3.0705,-3.074,-3.0814,-3.0922,-3.0989,-3.1121,-3.1227,-3.1328,-3.1375,-3.1366,-3.1368,-3.1394,-3.1391,-3.1375,-3.1385,-3.1109,-3.1361,-3.136,-3.1358,-3.1357,-3.1357,-3.0384,-3.0462,-3.0535,-3.0635,-3.0692,-3.0761,-3.084,-3.0882,-3.0972,-3.1081,-3.109,-3.1207,-3.1284,-3.1419,-3.1471,-3.1564,-3.1538,-3.1575,-3.1585,-3.1594,-3.1601,-3.136,-3.1583,-3.1582,-3.1582,-3.1581,-3.1581,0,-3.0593,-3.064,-3.0731,-3.0833,-3.0912,-3.0895,-3.0976,-3.1043,-3.1146,-3.1218,-3.1302,-3.1427,-3.153,-3.1588,-3.1691,-3.1754,-3.1753,-3.1781,-3.1776,-3.1787,-3.1619,-3.1586,-3.178,-3.178,-3.178,-3.178,-3.178,-3.178,-3.0712,-3.0843,-3.0864,-3.1025,-3.1071,-3.1185,-3.1233,-3.1297,-3.1354,-3.1494,-3.1578,-3.1615,-3.1682,-3.1789,-3.1883,-3.1898,-3.1936,-3.1967,-3.1978,-3.182,-3.1799,-3.178,-3.1749,-3.1975,-3.1975,-3.214,-3.2141,-3.2142]},{"header":{"parameterUnit":"m.s-1","parameterCategory":1,"la1":30.2991,"la2":30.254,"lo1":-89.0895,"lo2":-89.0444,"dy":0.0017,"dx":0.0017,"nx":28,"ny":28,"refTime":"2026-02-14T09:00:00:Z","depth":0,"parameterNumber":3,"parameterNumberName":"V-component_of_WINDS"},"data":[0,0,0,0,0,0,0,0,0,0,0,0,0,0,0,0,0,0,0,0,0,0,0,0,0,0,0,0,0,0,0,0,0,0,0,0,0,0,0,0,0,0,0,0,0,0,0,0,0,0,0,0,0,0,0,0,0,0,0.2292,0.2292,0,0.2352,0.2353,0.2353,0.2376,0.2375,0.2375,0.2375,0.2438,0.244,0.2442,0,0,0,0,0,0,0,0,0,0,0,0,0,0.2197,0.2199,0.2291,0.2292,0.2293,0.2352,0.2353,0.2353,0.2376,0.2375,0.2375,0.2375,0.2438,0.244,0.2442,0,0,0,0,0,0,0,0,0,0,0,0,0,0.2246,0.2199,0.2291,0.2311,0.2314,0.2352,0.2353,0.2354,0.2376,0.2375,0.2375,0.2375,0.2437,0.244,0.2442,0.2466,0,0,0.2451,0.2452,0,0,0,0,0,0,0,0,0.2243,0.2249,0.2308,0.231,0.2313,0.2356,0.2343,0.2391,0.2376,0.2352,0.2375,0.2375,0.2411,0.2416,0.2428,0.2469,0.2471,0.2451,0.2453,0.2454,0.2455,0,0,0,0,0,0,0,0.224,0.2247,0.2315,0.2308,0.2311,0.2318,0.2324,0.2352,0.2383,0.2354,0.2356,0.2363,0.2413,0.2425,0.243,0.2472,0.2451,0.2454,0.2455,0.2456,0.2536,0.2536,0,0,0,0,0,0,0.2233,0.2244,0.2314,0.2317,0.2276,0.232,0.2327,0.2342,0.2382,0.2388,0.2363,0.2364,0.2421,0.2426,0.2432,0.2462,0.2454,0.2457,0.2458,0.2535,0.2536,0.2536,0,0,0,0,0,0,0.2231,0.2239,0.2311,0.2281,0.2291,0.2322,0.2339,0.2344,0.2357,0.2389,0.2395,0.237,0.2421,0.2428,0.2457,0.2465,0.2458,0.246,0.2535,0.2535,0.2536,0.2523,0,0,0,0,0,0,0.2228,0.2238,0.2247,0.2281,0.2292,0.2335,0.2339,0.2345,0.2361,0.2363,0.2397,0.2403,0.2421,0.2453,0.246,0.2469,0.2463,0.2534,0.2535,0.2536,0.2523,0.2523,0.2523,0,0,0,0,0,0.2225,0.2241,0.2247,0.2255,0.2304,0.2335,0.2341,0.2362,0.2362,0.2371,0.2392,0.2402,0.2463,0.2456,0.2464,0.2473,0.2534,0.2535,0.2536,0.2523,0.2523,0.2523,0,0,0,0,0,0,0.2207,0.2246,0.2253,0.2281,0.2304,0.2339,0.2351,0.2361,0.2386,0.2386,0.241,0.2418,0.2445,0.2462,0.2454,0.2498,0.2499,0.2502,0.2486,0.2487,0.2487,0.2482,0.2465,0,0,0,0,0,0.2206,0.2227,0.226,0.2282,0.2293,0.232,0.2334,0.2348,0.2374,0.2384,0.2407,0.2432,0.2457,0.2473,0.2497,0.2525,0.2534,0.2536,0.2536,0.2536,0.2538,0.2555,0.2556,0.2539,0.2539,0.2539,0,0,0.2204,0.2228,0.2241,0.2279,0.2299,0.2321,0.2328,0.2352,0.2369,0.2388,0.2416,0.2434,0.2464,0.2493,0.2506,0.2508,0.2545,0.2537,0.2537,0.2539,0.2556,0.2558,0.2559,0.254,0.254,0.254,0,0,0.2213,0.2233,0.2254,0.2273,0.2304,0.2321,0.2326,0.2359,0.2372,0.2401,0.2416,0.2437,0.2479,0.25,0.2516,0.2533,0.2544,0.2541,0.2542,0.2558,0.2559,0.256,0.2567,0.2569,0.2543,0.2543,0.2543,0,0.2208,0.2242,0.2263,0.2285,0.2302,0.232,0.2341,0.2359,0.2396,0.2408,0.2408,0.2462,0.2483,0.2517,0.2522,0.2534,0.2541,0.2537,0.2557,0.2559,0.256,0.2567,0.2569,0.2542,0.2542,0.2542,0.2542,0,0.2234,0.2258,0.227,0.2305,0.2323,0.2345,0.237,0.2386,0.2398,0.2416,0.2446,0.2472,0.2502,0.2511,0.2523,0.2547,0.2547,0.2552,0.2553,0.2561,0.2568,0.257,0.2541,0.2542,0.2542,0.2542,0,0,0.2233,0.2279,0.2284,0.23,0.2335,0.2354,0.2376,0.2406,0.2419,0.2444,0.2465,0.25,0.2505,0.2523,0.2538,0.2552,0.2565,0.2556,0.2557,0.2557,0.2594,0.259,0.2592,0.2572,0.2573,0.2573,0.2591,0,0.2247,0.2288,0.2308,0.2341,0.2363,0.238,0.2401,0.2424,0.2442,0.2464,0.2484,0.2509,0.2513,0.2524,0.2539,0.256,0.2573,0.2559,0.2592,0.2593,0.2584,0.2596,0.2592,0.2608,0.2594,0.2594,0.2595,0,0.2269,0.2293,0.2328,0.2361,0.2371,0.2388,0.2417,0.2438,0.2466,0.2477,0.2498,0.2512,0.2538,0.2537,0.2573,0.2563,0.2578,0.2591,0.2592,0.2596,0.2594,0.26,0.2613,0.2616,0.2599,0.2599,0.2598,0,0.2265,0.2307,0.2333,0.2346,0.2385,0.2397,0.2414,0.2441,0.2458,0.2484,0.2495,0.2523,0.2539,0.2561,0.2583,0.258,0.2617,0.2618,0.2628,0.2627,0.2635,0.2634,0.265,0.2644,0.2643,0.2643,0.2643,0,0.2279,0.2299,0.2332,0.2348,0.2372,0.2395,0.2418,0.2437,0.2461,0.2482,0.2499,0.2518,0.2545,0.2568,0.2586,0.2613,0.262,0.2631,0.2635,0.2629,0.2628,0.2639,0.2639,0.2644,0.2644,0.2644,0.2644,0,0.2278,0.2301,0.2331,0.2365,0.2374,0.239,0.242,0.2437,0.2455,0.2481,0.2489,0.2518,0.2546,0.257,0.2607,0.2618,0.2647,0.2652,0.2637,0.264,0.2648,0.2647,0.2673,0.2677,0.2667,0.2667,0.2667,0,0.2286,0.2302,0.2338,0.2352,0.2369,0.2392,0.241,0.2433,0.245,0.2483,0.2496,0.2525,0.255,0.2593,0.2618,0.2647,0.2653,0.266,0.2657,0.2651,0.2654,0.2652,0.2654,0.266,0.266,0.266,0.266,0,0.2296,0.2307,0.233,0.2358,0.2378,0.2401,0.2425,0.2436,0.2464,0.2483,0.2511,0.253,0.2568,0.2596,0.2628,0.2646,0.2658,0.2661,0.2665,0.2659,0.265,0.2655,0.2638,0.266,0.266,0.266,0.266,0.266,0.23,0.2316,0.2343,0.2369,0.239,0.2411,0.2429,0.245,0.2474,0.2506,0.2518,0.2547,0.2576,0.2619,0.2637,0.2661,0.2662,0.2668,0.2669,0.267,0.267,0.2646,0.2666,0.2666,0.2666,0.2666,0.2666,0,0.2312,0.2331,0.2354,0.2387,0.2407,0.2417,0.2443,0.246,0.2486,0.2511,0.2534,0.2567,0.2595,0.2623,0.2652,0.2666,0.2672,0.2673,0.2672,0.2677,0.2666,0.266,0.2668,0.2668,0.2668,0.2668,0.2668,0.2668,0.232,0.2347,0.2361,0.2398,0.2417,0.2445,0.246,0.2481,0.2501,0.2537,0.256,0.2577,0.2604,0.2636,0.2662,0.2669,0.268,0.2679,0.2688,0.2678,0.2677,0.2677,0.2671,0.2681,0.2681,0.2696,0.2697,0.2697]}]]